Find Starlink 37911

NORAD ID: 100431 Int'l Des: 2026-192 Owner: SPXS Country: US Constellation: starlink operational

現在のビュー

3D地球を読み込み中...

About Starlink 37911

Starlink 37911 (NORAD 100431) is a starlink constellation satellite launched Aug 21, 2026 by SPXS of US. with a mass of 575.00 kg.

次回通過

Passes for default location (London). Set your location on the main map for personalized predictions.

高度履歴

Loading altitude history...

軌道要素

1 A0431U 26192AD 26249.61499925 .00100635 00000-0 53169-3 0 9998
2 A0431 53.1584 14.1376 0000789 54.8446 305.2651 15.79853894 3793
Epoch: Sep 6, 2026 • Age: 6 hours

現在のステータス

高度 349.6 km
遠地点 / 近地点 N/A
速度 7.70 km/s
衛星直下点 -53.09°S, 2.8°W
打ち上げ日 Aug 21, 2026
運用期間 16 days
タイプ internet

技術仕様

分類 Payload
質量 575.00 kg
乾燥質量 530.00 kg
総質量 575.00 kg
長さ 0.30 m
直径 4.10 m
スパン 29.00 m
形状 Box + pan
製造者 SPXS
バスタイプ Starlink V2MO
フェーズステータス In Orbit
所有者/国 SPXS/US

Most Searched